Weather in Suwalki

Poland     54°05′56″N   22°56′14″E
temp.,
°C
wind,
m/s
gust,
m/s
humid.,
%
clouds,
%
prec.,
mm/h
press.,
hPa
HPBL,
m
17 june, thu
thu1723:00+12ne24885 0.0 102262
02:00+11ene22893 0.0 102229
05:00+11e22870 0.0 102241
08:00+19ese23562 0.0 1023438
11:00+23se34380 0.0 10231403
14:00+26sse33335 0.0 10221621
17:00+25se33392 0.0 10221592
20:00+19se25680 0.0 102288
18 june, fri
fri1823:00+15ese22845 0.0 102337
02:00+14ese22913 0.0 102323
05:00+14se24915 0.0 102477
08:00+22sse35615 0.0 1023456
11:00+26sse44485 0.0 10221655
14:00+27sse444242 0.0 10221863
17:00+26sse44445 0.0 10211524
20:00+21se36675 0.0 1021168
19 june, sat
sat1923:00+17se27874 0.0 1022136
02:00+15se22950 0.0 102143
05:00+15se23932 0.0 102168
08:00+22sse35670 0.0 1021498
11:00+27sse45525 0.0 10201600
14:00+29sse45440 0.0 10191925
17:00+27sse5556100 0.0 10181299
20:00+23se267612 0.1 1018162
20 june, sun
sun2023:00+18sse26955 0.1 1019115
02:00+17sse24960 0.1 101969
05:00+17sse24932 0.0 101977
08:00+23sse35650 0.0 1018539
11:00+27sse454934 0.0 10181882
14:00+25sse3558100 0.1 1017752
17:00+25sse2560100 0.1 1016373
20:00+23ese26730 0.1 1016155
21 june, mon
mon2123:00+19ese26940 0.0 1016123
02:00+18ese24970 0.0 101683
05:00+18ese25950 0.0 1016106
08:00+24ese47660 0.0 1015598
11:00+28se58481 0.0 10141410
14:00+29se57433 0.0 10131728
17:00+29se46460 0.0 10131690
20:00+24ese386815 0.0 1012400